Tiempo cada hora Cartagena

Hoy, 18 Enero, Lunes

Tiempo Temperatura Precipitaciones Viento Presión Humedad
00:00 +11°C° 0 mm 4 mps 769 mmHg 40%
01:00 +11°C° 0 mm 4 mps 769 mmHg 41%
02:00 +10°C° 0 mm 3 mps 768 mmHg 42%
03:00 +10°C° 0 mm 3 mps 768 mmHg 44%
04:00 +10°C° 0 mm 3 mps 768 mmHg 47%
05:00 +9°C° 0 mm 3 mps 768 mmHg 50%
06:00 +9°C° 0 mm 3 mps 768 mmHg 54%
07:00 +10°C° 0 mm 3 mps 769 mmHg 55%
08:00 +11°C° 0 mm 3 mps 769 mmHg 57%
09:00 +13°C° 0 mm 3 mps 769 mmHg 58%
10:00 +14°C° 0 mm 3 mps 770 mmHg 59%
11:00 +15°C° 0 mm 4 mps 770 mmHg 59%
12:00 +17°C° 0 mm 4 mps 770 mmHg 60%
13:00 +17°C° 0 mm 4 mps 769 mmHg 60%
14:00 +17°C° 0 mm 3 mps 768 mmHg 59%
15:00 +17°C° 0 mm 3 mps 768 mmHg 59%
16:00 +14°C° 0 mm 3 mps 768 mmHg 69%
17:00 +12°C° 0 mm 3 mps 768 mmHg 79%
18:00 +10°C° 0 mm 2 mps 769 mmHg 89%
19:00 +10°C° 0 mm 2 mps 769 mmHg 90%
20:00 +10°C° 0 mm 1 mps 769 mmHg 91%
21:00 +10°C° 0 mm 1 mps 769 mmHg 92%
22:00 +9°C° 0 mm 1 mps 769 mmHg 92%
23:00 +9°C° 0 mm 1 mps 769 mmHg 91%

Mañana, 19 Enero, Martes

Tiempo Temperatura Precipitaciones Viento Presión Humedad
00:00 +9°C° 0 mm 1 mps 769 mmHg 91%
01:00 +9°C° 0 mm 1 mps 769 mmHg 91%
02:00 +8°C° 0 mm 1 mps 769 mmHg 90%
03:00 +8°C° 0 mm 1 mps 768 mmHg 90%
04:00 +8°C° 0 mm 1 mps 768 mmHg 90%
05:00 +8°C° 0 mm 1 mps 768 mmHg 90%
06:00 +8°C° 0 mm 1 mps 768 mmHg 89%
07:00 +9°C° 0 mm 1 mps 768 mmHg 84%
08:00 +11°C° 0 mm 1 mps 768 mmHg 79%
09:00 +13°C° 0 mm 1 mps 768 mmHg 73%
10:00 +14°C° 0 mm 1 mps 768 mmHg 67%
11:00 +15°C° 0 mm 1 mps 767 mmHg 61%
12:00 +18°C° 0 mm 1 mps 767 mmHg 54%
13:00 +18°C° 0 mm 1 mps 767 mmHg 54%
14:00 +17°C° 0 mm 2 mps 766 mmHg 53%
15:00 +17°C° 0 mm 3 mps 765 mmHg 53%
16:00 +16°C° 0 mm 3 mps 765 mmHg 63%
17:00 +13°C° 0 mm 3 mps 765 mmHg 74%
18:00 +11°C° 0 mm 3 mps 765 mmHg 84%
19:00 +11°C° 0 mm 3 mps 765 mmHg 86%
20:00 +10°C° 0 mm 3 mps 765 mmHg 87%
21:00 +10°C° 0 mm 3 mps 765 mmHg 88%
22:00 +9°C° 0 mm 3 mps 764 mmHg 89%
23:00 +9°C° 0 mm 3 mps 764 mmHg 89%

Pasado mañana, 20 Enero, Miércoles

Tiempo Temperatura Precipitaciones Viento Presión Humedad
00:00 +8°C° 0 mm 3 mps 764 mmHg 90%
01:00 +7°C° 0 mm 4 mps 763 mmHg 90%
02:00 +7°C° 0 mm 4 mps 763 mmHg 90%
03:00 +7°C° 0 mm 4 mps 762 mmHg 91%
04:00 +7°C° 0 mm 4 mps 762 mmHg 90%
05:00 +7°C° 0 mm 4 mps 761 mmHg 90%
06:00 +6°C° 0 mm 4 mps 761 mmHg 90%
07:00 +8°C° 0 mm 4 mps 761 mmHg 86%
08:00 +10°C° 0 mm 4 mps 761 mmHg 82%
09:00 +12°C° 0 mm 4 mps 760 mmHg 78%
10:00 +13°C° 0 mm 6 mps 760 mmHg 69%
11:00 +14°C° 0 mm 7 mps 760 mmHg 61%
12:00 +15°C° 0 mm 8 mps 760 mmHg 52%
13:00 +15°C° 0 mm 8 mps 759 mmHg 50%
14:00 +16°C° 0 mm 8 mps 758 mmHg 47%
15:00 +16°C° 0 mm 9 mps 758 mmHg 45%
16:00 +15°C° 0 mm 9 mps 758 mmHg 52%
17:00 +12°C° 0 mm 9 mps 758 mmHg 59%
18:00 +11°C° 0 mm 9 mps 758 mmHg 66%
19:00 +11°C° 0 mm 9 mps 758 mmHg 71%
20:00 +10°C° 0 mm 9 mps 758 mmHg 76%
21:00 +9°C° 0 mm 10 mps 759 mmHg 81%
22:00 +10°C° 0 mm 8 mps 759 mmHg 77%
23:00 +11°C° 0 mm 7 mps 759 mmHg 74%

21 Enero, Jueves

Tiempo Temperatura Precipitaciones Viento Presión Humedad
00:00 +11°C° 0 mm 6 mps 759 mmHg 70%
01:00 +11°C° 0 mm 6 mps 759 mmHg 69%
02:00 +12°C° 0 mm 5 mps 759 mmHg 68%
03:00 +12°C° 0 mm 5 mps 760 mmHg 67%
04:00 +10°C° 0 mm 5 mps 760 mmHg 68%
05:00 +10°C° 0 mm 5 mps 760 mmHg 69%
06:00 +10°C° 0 mm 5 mps 760 mmHg 70%
07:00 +12°C° 0 mm 5 mps 761 mmHg 68%
08:00 +13°C° 0 mm 5 mps 761 mmHg 66%
09:00 +14°C° 0 mm 4 mps 761 mmHg 64%
10:00 +16°C° 0 mm 5 mps 761 mmHg 56%
11:00 +19°C° 0 mm 6 mps 761 mmHg 49%
12:00 +21°C° 0 mm 6 mps 761 mmHg 42%
13:00 +20°C° 0 mm 6 mps 761 mmHg 43%
14:00 +20°C° 0 mm 6 mps 760 mmHg 44%
15:00 +20°C° 0 mm 6 mps 760 mmHg 45%
16:00 +17°C° 0 mm 5 mps 760 mmHg 49%
17:00 +17°C° 0 mm 4 mps 760 mmHg 52%
18:00 +15°C° 0 mm 4 mps 760 mmHg 56%
19:00 +15°C° 0 mm 4 mps 760 mmHg 57%
20:00 +15°C° 0 mm 4 mps 760 mmHg 57%
21:00 +14°C° 0 mm 4 mps 760 mmHg 58%
22:00 +14°C° 0 mm 5 mps 760 mmHg 60%
23:00 +14°C° 0 mm 5 mps 760 mmHg 62%

22 Enero, Viernes

Tiempo Temperatura Precipitaciones Viento Presión Humedad
00:00 +13°C° 0 mm 5 mps 759 mmHg 64%
01:00 +13°C° 0 mm 6 mps 759 mmHg 64%
02:00 +13°C° 0 mm 6 mps 759 mmHg 65%
03:00 +12°C° 0 mm 7 mps 759 mmHg 65%
04:00 +12°C° 0 mm 7 mps 759 mmHg 67%
05:00 +12°C° 0 mm 7 mps 759 mmHg 70%
06:00 +12°C° 0 mm 7 mps 758 mmHg 72%
07:00 +14°C° 0 mm 7 mps 759 mmHg 69%
08:00 +15°C° 0 mm 6 mps 759 mmHg 66%
09:00 +16°C° 0 mm 6 mps 759 mmHg 63%
10:00 +18°C° 0 mm 7 mps 759 mmHg 55%
11:00 +20°C° 0 mm 8 mps 759 mmHg 47%
12:00 +21°C° 0 mm 8 mps 759 mmHg 39%
13:00 +21°C° 0 mm 9 mps 759 mmHg 37%
14:00 +19°C° 0 mm 10 mps 759 mmHg 36%
15:00 +19°C° 0 mm 11 mps 759 mmHg 34%
16:00 +17°C° 0 mm 10 mps 760 mmHg 41%
17:00 +15°C° 0 mm 9 mps 760 mmHg 47%
18:00 +12°C° 0 mm 8 mps 761 mmHg 54%
19:00 +12°C° 0 mm 8 mps 762 mmHg 54%
20:00 +11°C° 0 mm 7 mps 762 mmHg 54%
21:00 +11°C° 0 mm 6 mps 763 mmHg 54%
22:00 +10°C° 0 mm 6 mps 763 mmHg 57%
23:00 +9°C° 0 mm 5 mps 764 mmHg 59%

23 Enero, Sábado

Tiempo Temperatura Precipitaciones Viento Presión Humedad
00:00 +8°C° 0 mm 4 mps 765 mmHg 62%
01:00 +8°C° 0 mm 5 mps 765 mmHg 63%
02:00 +8°C° 0 mm 5 mps 765 mmHg 64%
03:00 +8°C° 0 mm 5 mps 766 mmHg 65%
04:00 +8°C° 0 mm 5 mps 766 mmHg 65%
05:00 +8°C° 0 mm 5 mps 766 mmHg 66%
06:00 +8°C° 0 mm 5 mps 766 mmHg 66%
07:00 +8°C° 0 mm 4 mps 766 mmHg 63%
08:00 +10°C° 0 mm 4 mps 767 mmHg 61%
09:00 +11°C° 0 mm 4 mps 767 mmHg 58%
10:00 +13°C° 0 mm 4 mps 767 mmHg 51%
11:00 +14°C° 0 mm 4 mps 767 mmHg 44%
12:00 +17°C° 0 mm 3 mps 767 mmHg 37%
13:00 +17°C° 0 mm 4 mps 766 mmHg 36%
14:00 +17°C° 0 mm 5 mps 766 mmHg 35%
15:00 +17°C° 0 mm 6 mps 765 mmHg 34%
16:00 +15°C° 0 mm 5 mps 765 mmHg 45%
17:00 +13°C° 0 mm 4 mps 766 mmHg 56%
18:00 +10°C° 0 mm 3 mps 766 mmHg 67%
19:00 +10°C° 0 mm 3 mps 766 mmHg 66%
20:00 +9°C° 0 mm 2 mps 766 mmHg 65%
21:00 +9°C° 0 mm 2 mps 766 mmHg 64%
22:00 +9°C° 0 mm 2 mps 766 mmHg 62%
23:00 +9°C° 0 mm 2 mps 766 mmHg 60%
Mostrar más

Necesitamos Su Consentimiento

Meteoprog y nuestros Proveedores de Servicios pueden almacenar y acceder a sus datos personales como cookies, identificadores de dispositivo u otras tecnologías similares de su dispositivo y procesar dichos datos para personalizar contenido y anuncios, además de ofrecer funciones de redes sociales y analizar el tráfico.

  • Almacenar y/o acceder a información en su dispositivo

    Se puede almacenar o acceder a cookies, identificadores de dispositivo u otra información de su dispositivo para los fines anteriormente indicados.

  • Anuncios y contenido personalizados, medición de anuncios y contenido, percepciones del público, y desarrollo de productos

    Los anuncios y el contenido pueden personalizarse en base a su perfil. Se pueden añadir más datos para personalizar mejor los anuncios y contenidos. Se puede medir el rendimiento de los anuncios y contenidos. Se puede obtener la percepción sobre el público que ha visto los anuncios y contenidos. Dichos datos pueden usarse para desarrollar o mejorar la experiencia del usuario, sistemas y software.

Al hacer clic en ‘Estoy De Acuerdo’ usted permitirá el uso de las cookies, identificadores de dispositivo, balizas web u otras tecnologías similares indicadas. Su configuración puede cambiarse desde el navegador de su dispositivo.

Para ciertos fines, los intereses legítimos pueden ser considerados por encima del consentimiento. Puede leer más sobre ello en nuestra Política de Privacidad y Cookies.